Location: *
(49.6619°S, 177.4603°W)
Time: 05:47:46
(UTC+00:00)

Resurs 01 Rocket - Pass Details

Date: 31 January 2023
Orbit: 632 x 643 km, 97.9° (Epoch: 01 April)

Event Time Altitude Azimuth Distance (km) Brightness Sun altitude
Rises 09:04:56 0° 165° (SSE) 2,974 5.5 -12.2°
Reaches altitude 10° 09:07:10 10° 163° (SSE) 2,057 4.6 -12.5°
Maximum altitude 09:11:40 73° 77° (ENE) 679 1.6 -13.0°
Drops below altitude 10° 09:16:05 10° 352° (N) 2,030 3.8 -13.4°
Enters shadow 09:16:22 - 352° (N) 2,147 3.9 -13.5°
